Location: Holyhead Bay
(53.3667°N, 4.6667°W)
Time: 19:04:32
(UTC+00:00)

Cosmos 2181 Rocket - Pass Details

Date: 24 November 2020
Orbit: 951 x 1015 km, 82.9° (Epoch: 16 January)

Event Time Altitude Azimuth Distance (km) Brightness Sun altitude
Rises 17:58:05 0° 167° (SSE) 3,741 7.1 -15.4°
Reaches altitude 10° 18:00:42 10° 162° (SSE) 2,792 6.4 -15.8°
Maximum altitude 18:06:49 48° 90° (E) 1,292 4.2 -16.7°
Drops below altitude 10° 18:12:54 10° 19° (NNE) 2,780 6.1 -17.6°
Sets 18:15:30 0° 14° (NNE) 3,725 6.8 -18.0°
